Skip to main content
World Ocean Database / XBT References Table / Cruise 31008540 Information
CRUISE INFORMATION RECORD AND DATA
NODC Cruise 31-8540 Information
WOD CRUISE REFERENCE # 31008540
DATA:
in WOD format 31008540_XBT.dat
31008540_CTD.dat
in 'csv' format 31008540_XBT.csv
31008540_CTD.csv
METADATA:
COUNTRY UNITED STATES (31)
NODC ACCESSION NUMBER (OSD) 7800333
NODC ACCESSION NUMBER (XBT) 8900113
NODC ACCESSION NUMBER (CTD) 9400167
SHIP NAME (7800333) THOMAS G. THOMPSON (AGAR-23) (Call sigh KGWT; active 1965 - 1991)
INSTITUTE (7800333) WOODS HOLE OCEANOGRAPHIC INSTITUTE (WHOI)
INSTITUTE (8900113) US NAVY FLEET NUMERICAL OCEANOGRAPHY CENTER (FNOC)
INSTITUTE (9400167) WOODS HOLE OCEANOGRAPHIC INSTITUTE (WHOI)
PROJECT (7800333) IDOE/ISOS/FDRAKE
PROJECT (9400167) IDOE/ISOS/FDRAKE
ORIGINATORS CRUISE CODE (OSD) 107 LEG3
ORIGINATORS CRUISE CODE (XBT) 05763
ORIGINATORS CRUISE CODE (CTD) tt107
SUBMITTING INFORMATION (7800333)
SUBMITTING INSTITUTE WOODS HOLE OCEANOGRAPHIC INSTITUTE (WHOI)
SUBMISSION DATE 10/4/1978
SUBMITTING INFORMATION (8900113)
SUBMITTING INSTITUTE US NAVY FLEET NUMERICAL OCEANOGRAPHY CENTER (FNOC)
SUBMITTING INVESTIGATOR STEVENS; PAUL
SUBMISSION DATE 3/30/1989
SUBMITTING INFORMATION (9400167)
SUBMITTING INSTITUTE WOODS HOLE OCEANOGRAPHIC INSTITUTE (WHOI)
SUBMITTING INVESTIGATOR BURGETT; RUSSELL
SUBMISSION DATE 10/28/1998
DATE OF FIRST CAST 3/15/1976
DATE OF LAST CAST 4/ 6/1976
TOTAL NUMBER OF CASTS 290
Temperature [t] PROFILES 290
Salinity [s] PROFILES 164
Oxygen [o] PROFILES 160
Phosphate [p] PROFILES 68
Silicate [i] PROFILES 64
Nitrate [n] PROFILES 69
Pressure [w] PROFILES 95
UNIQUE CAST # LATITUDE LONGITUDE DATE TIME PROBE TYPE
732313 -55.505 -65.728 3/15/1976 13.000 OSD
732321 -55.408 -65.550 3/16/1976 0.100 OSD
2440822 -55.500 -65.700 3/16/1976 2.500 XBT
2440866 -56.497 -65.815 3/16/1976 10.250 XBT
2440868 -56.618 -65.692 3/16/1976 11.033 XBT
2440884 -56.747 -65.507 3/16/1976 12.167 XBT
2440893 -56.850 -65.383 3/16/1976 13.000 XBT
2440900 -57.000 -65.212 3/16/1976 14.000 XBT
2440902 -57.142 -65.093 3/16/1976 15.000 XBT
2440903 -57.295 -64.957 3/16/1976 15.917 XBT
2440907 -57.468 -64.842 3/16/1976 17.083 XBT
2440917 -57.700 -64.517 3/16/1976 18.833 XBT
2440938 -57.968 -64.130 3/16/1976 21.417 XBT
2440942 -58.102 -63.967 3/16/1976 22.100 XBT
2440947 -58.230 -63.817 3/16/1976 23.067 XBT
2440953 -58.385 -63.687 3/17/1976 0.000 XBT
2440973 -58.550 -63.525 3/17/1976 1.000 XBT
2440974 -58.722 -63.383 3/17/1976 2.000 XBT
2440978 -58.875 -63.215 3/17/1976 3.000 XBT
2440984 -59.032 -63.042 3/17/1976 4.000 XBT
732348 -59.072 -63.920 3/17/1976 17.000 OSD
3329705 -58.928 -63.920 3/17/1976 17.001 CTD
732353 -58.905 -63.878 3/18/1976 0.200 OSD
3329706 -58.913 -63.900 3/18/1976 0.251 CTD
2441111 -58.700 -64.000 3/18/1976 3.083 XBT
2441113 -58.583 -64.057 3/18/1976 4.000 XBT
2441120 -58.397 -64.168 3/18/1976 5.000 XBT
2441125 -58.257 -64.260 3/18/1976 6.000 XBT
2441140 -58.095 -64.363 3/18/1976 7.000 XBT
2441146 -57.935 -64.458 3/18/1976 8.000 XBT
2441142 -57.847 -64.510 3/18/1976 8.500 XBT
2441150 -57.758 -64.593 3/18/1976 9.050 XBT
3329707 -57.603 -64.648 3/18/1976 10.001 CTD
732368 -57.387 -64.613 3/18/1976 20.300 OSD
3329708 -57.417 -64.635 3/18/1976 20.367 CTD
3329709 -57.414 -64.627 3/18/1976 23.984 CTD
732371 -57.413 -64.628 3/19/1976 1.900 OSD
3329710 -57.427 -64.635 3/19/1976 1.984 CTD
3329711 -57.418 -64.630 3/19/1976 4.334 CTD
732375 -57.425 -64.633 3/19/1976 6.800 OSD
3329712 -57.432 -64.643 3/19/1976 6.801 CTD
732379 -57.395 -64.603 3/19/1976 9.700 OSD
3329713 -57.418 -64.612 3/19/1976 9.784 CTD
732381 -57.393 -64.630 3/19/1976 12.200 OSD
3329714 -57.415 -64.620 3/19/1976 12.201 CTD
3329715 -57.418 -64.627 3/19/1976 14.717 CTD
732385 -57.680 -64.605 3/19/1976 16.800 OSD
3329716 -57.420 -64.622 3/19/1976 16.884 CTD
732387 -57.403 -64.598 3/19/1976 18.900 OSD
3329717 -57.422 -64.612 3/19/1976 18.901 CTD
732388 -57.405 -64.617 3/19/1976 21.000 OSD
3329718 -57.423 -64.630 3/19/1976 21.084 CTD
732390 -57.392 -64.612 3/19/1976 23.300 OSD
3329719 -57.422 -64.620 3/19/1976 23.301 CTD
3329720 -57.420 -64.613 3/20/1976 1.501 CTD
3329721 -57.422 -64.618 3/20/1976 4.301 CTD
3329723 -57.427 -64.607 3/20/1976 5.051 CTD
3329722 -57.433 -64.593 3/20/1976 5.651 CTD
3329724 -57.440 -64.587 3/20/1976 6.384 CTD
3329725 -57.440 -64.568 3/20/1976 7.151 CTD
732413 -57.750 -63.872 3/21/1976 7.000 OSD
3329727 -57.758 -63.893 3/21/1976 7.084 CTD
732416 -57.682 -63.945 3/21/1976 11.200 OSD
3329728 -57.688 -63.918 3/21/1976 11.251 CTD
732418 -57.665 -63.952 3/21/1976 13.700 OSD
3329729 -57.670 -63.950 3/21/1976 13.701 CTD
732420 -57.665 -64.032 3/21/1976 16.700 OSD
3329730 -57.668 -63.953 3/21/1976 16.717 CTD
732423 -57.618 -64.107 3/21/1976 20.400 OSD
3329731 -57.635 -63.867 3/21/1976 20.401 CTD
3329732 -57.598 -64.210 3/22/1976 0.084 CTD
732426 -57.548 -64.278 3/22/1976 2.800 OSD
3329733 -57.567 -64.282 3/22/1976 2.834 CTD
732428 -57.540 -64.333 3/22/1976 5.800 OSD
3329734 -57.547 -64.335 3/22/1976 5.834 CTD
732431 -57.530 -64.390 3/22/1976 8.100 OSD
3329735 -57.530 -64.390 3/22/1976 8.167 CTD
732433 -57.477 -64.377 3/22/1976 10.500 OSD
3329736 -57.502 -64.433 3/22/1976 10.501 CTD
732437 -57.483 -64.483 3/22/1976 14.100 OSD
3329737 -57.497 -64.507 3/22/1976 14.467 CTD
732440 -57.460 -64.542 3/22/1976 16.100 OSD
3329738 -57.480 -64.548 3/22/1976 16.167 CTD
732443 -57.440 -64.588 3/22/1976 18.100 OSD
3329739 -57.453 -64.587 3/22/1976 18.167 CTD
732445 -57.410 -64.643 3/22/1976 20.500 OSD
3329740 -57.432 -64.645 3/22/1976 20.501 CTD
732449 -57.392 -64.720 3/22/1976 23.400 OSD
3329742 -57.402 -64.725 3/22/1976 23.417 CTD
732450 -57.585 -64.198 3/22/1976 OSD
732453 -57.638 -64.357 3/23/1976 5.300 OSD
3329743 -57.652 -64.353 3/23/1976 5.334 CTD
3329744 -57.632 -64.267 3/23/1976 7.501 CTD
732460 -57.568 -64.097 3/23/1976 9.200 OSD
3329745 -57.573 -63.845 3/23/1976 9.251 CTD
732466 -57.477 -64.033 3/23/1976 11.000 OSD
3329746 -57.490 -63.957 3/23/1976 11.001 CTD
3329748 -57.528 -64.313 3/23/1976 21.084 CTD
3329749 -57.552 -63.903 3/24/1976 3.084 CTD
732515 -57.213 -63.865 3/24/1976 23.000 OSD
3329750 -57.235 -63.955 3/24/1976 23.001 CTD
3329751 -57.548 -62.952 3/25/1976 8.084 CTD
732541 -57.425 -63.450 3/25/1976 19.400 OSD
3329752 -57.413 -63.468 3/25/1976 19.417 CTD
3329753 -56.955 -63.633 3/26/1976 3.417 CTD
732571 -57.692 -63.372 3/26/1976 12.700 OSD
3329754 -57.683 -63.382 3/26/1976 12.767 CTD
732574 -57.922 -63.600 3/26/1976 17.400 OSD
3329755 -57.932 -63.578 3/26/1976 17.417 CTD
732604 -56.750 -63.317 3/27/1976 6.600 OSD
3329757 -56.758 -63.342 3/27/1976 6.617 CTD
3329758 -58.987 -63.850 3/27/1976 12.634 CTD
2442660 -57.802 -63.418 3/27/1976 17.600 XBT
2442667 -57.858 -63.450 3/27/1976 18.167 XBT
2442679 -57.890 -63.638 3/27/1976 19.417 XBT
2442686 -57.998 -63.148 3/27/1976 21.500 XBT
2442700 -58.130 -63.737 3/27/1976 23.583 XBT
2442720 -58.143 -63.895 3/28/1976 0.500 XBT
2442722 -58.133 -63.980 3/28/1976 1.000 XBT
2442723 -58.080 -64.062 3/28/1976 1.500 XBT
2442726 -58.020 -64.145 3/28/1976 2.083 XBT
2442735 -57.965 -63.988 3/28/1976 3.000 XBT
2442734 -57.932 -63.900 3/28/1976 3.500 XBT
2442733 -57.920 -63.878 3/28/1976 3.750 XBT
2442749 -57.943 -63.888 3/28/1976 5.000 XBT
2442747 -57.983 -63.900 3/28/1976 5.500 XBT
2442759 -58.115 -63.942 3/28/1976 6.500 XBT
2442774 -58.172 -63.962 3/28/1976 7.000 XBT
2442773 -58.257 -63.957 3/28/1976 7.500 XBT
2442781 -58.322 -63.950 3/28/1976 8.083 XBT
2442791 -58.497 -63.948 3/28/1976 9.083 XBT
2442789 -58.547 -63.947 3/28/1976 9.583 XBT
2442794 -58.623 -63.938 3/28/1976 10.000 XBT
2442792 -58.698 -63.893 3/28/1976 10.517 XBT
2442802 -58.767 -63.908 3/28/1976 11.000 XBT
2442804 -58.842 -63.890 3/28/1976 11.583 XBT
2442816 -58.923 -63.873 3/28/1976 12.000 XBT
2442825 -59.007 -63.852 3/28/1976 12.500 XBT
732657 -59.005 -63.820 3/28/1976 12.600 OSD
2442840 -58.738 -63.950 3/28/1976 15.500 XBT
2442848 -58.738 -63.950 3/28/1976 16.000 XBT
2442847 -58.660 -63.987 3/28/1976 16.500 XBT
2442851 -58.580 -64.032 3/28/1976 17.000 XBT
2442849 -58.495 -64.058 3/28/1976 17.500 XBT
2442861 -58.433 -64.142 3/28/1976 18.000 XBT
2442864 -58.365 -64.230 3/28/1976 18.500 XBT
2442873 -58.225 -64.390 3/28/1976 19.500 XBT
2442877 -58.143 -64.488 3/28/1976 20.000 XBT
2442875 -58.112 -64.553 3/28/1976 20.500 XBT
2442884 -58.028 -64.577 3/28/1976 21.000 XBT
2442883 -57.933 -64.578 3/28/1976 21.500 XBT
2442888 -57.842 -64.573 3/28/1976 22.033 XBT
2442898 -57.653 -64.585 3/28/1976 23.000 XBT
2442897 -57.558 -64.577 3/28/1976 23.417 XBT
2442901 -57.550 -64.395 3/29/1976 0.133 XBT
2442903 -57.553 -64.272 3/29/1976 0.500 XBT
2442922 -57.568 -64.133 3/29/1976 1.000 XBT
2442921 -57.622 -63.962 3/29/1976 1.500 XBT
2442926 -57.657 -63.865 3/29/1976 2.000 XBT
732692 -57.670 -63.887 3/29/1976 2.300 OSD
3329761 -57.665 -63.850 3/29/1976 2.334 CTD
732701 -57.670 -64.158 3/29/1976 7.600 OSD
3329762 -57.703 -63.840 3/29/1976 7.667 CTD
732714 -57.410 -64.203 3/29/1976 14.600 OSD
3329764 -57.418 -64.173 3/29/1976 14.634 CTD
2442983 -57.450 -64.198 3/29/1976 17.500 XBT
2442999 -57.535 -64.188 3/29/1976 18.500 XBT
2443010 -57.520 -64.153 3/29/1976 20.250 XBT
2443008 -57.550 -64.062 3/29/1976 20.750 XBT
2443011 -57.590 -63.960 3/29/1976 21.250 XBT
2443015 -57.642 -63.853 3/29/1976 21.750 XBT
2443018 -57.692 -63.742 3/29/1976 22.250 XBT
2443017 -57.733 -63.633 3/29/1976 22.750 XBT
2443022 -57.788 -63.502 3/29/1976 23.333 XBT
2443031 -57.828 -63.402 3/29/1976 23.750 XBT
2443049 -57.897 -63.302 3/30/1976 0.250 XBT
2443051 -57.970 -63.157 3/30/1976 1.000 XBT
732743 -58.020 -62.972 3/30/1976 1.600 OSD
3329765 -57.998 -62.997 3/30/1976 1.701 CTD
2443053 -58.050 -62.973 3/30/1976 1.750 XBT
2443071 -58.097 -62.978 3/30/1976 4.000 XBT
2443065 -58.173 -62.980 3/30/1976 4.500 XBT
2443075 -58.247 -62.983 3/30/1976 5.000 XBT
2443073 -58.322 -62.987 3/30/1976 5.500 XBT
2443081 -58.388 -62.992 3/30/1976 6.000 XBT
2443080 -58.465 -62.995 3/30/1976 6.500 XBT
2443102 -58.550 -63.000 3/30/1976 7.017 XBT
2443103 -58.640 -63.007 3/30/1976 7.500 XBT
2443111 -58.733 -62.992 3/30/1976 8.017 XBT
2443113 -58.790 -62.983 3/30/1976 8.500 XBT
732752 -58.812 -62.928 3/30/1976 9.000 OSD
3329766 -58.808 -62.975 3/30/1976 9.001 CTD
2443131 -58.737 -63.000 3/30/1976 11.700 XBT
2443132 -58.688 -63.050 3/30/1976 12.083 XBT
2443136 -58.633 -63.107 3/30/1976 12.500 XBT
2443147 -58.557 -63.165 3/30/1976 13.000 XBT
2443148 -58.475 -63.233 3/30/1976 13.500 XBT
732757 -58.478 -63.217 3/30/1976 14.000 OSD
3329767 -58.478 -63.233 3/30/1976 14.084 CTD
3329768 -58.462 -63.187 3/30/1976 19.167 CTD
3329771 -58.463 -63.222 3/31/1976 3.334 CTD
3329772 -58.453 -63.203 3/31/1976 5.634 CTD
3329774 -58.433 -62.850 3/31/1976 7.451 CTD
3329775 -58.425 -62.850 3/31/1976 9.751 CTD
3329777 -58.417 -62.835 3/31/1976 11.734 CTD
3329779 -58.410 -62.835 3/31/1976 14.201 CTD
3329780 -58.413 -62.835 3/31/1976 16.251 CTD
3329781 -58.403 -62.840 3/31/1976 18.251 CTD
3329782 -58.402 -62.865 3/31/1976 20.217 CTD
3329783 -58.397 -62.868 3/31/1976 22.601 CTD
3329784 -58.383 -62.883 4/1/1976 0.751 CTD
3329785 -58.380 -62.878 4/1/1976 2.834 CTD
3329786 -58.383 -62.845 4/1/1976 4.684 CTD
3329787 -58.380 -62.850 4/1/1976 6.501 CTD
3329788 -58.322 -63.195 4/1/1976 18.967 CTD
3329789 -58.343 -62.995 4/1/1976 23.917 CTD
2443474 -58.377 -62.967 4/2/1976 1.000 XBT
2443476 -58.542 -62.853 4/2/1976 2.083 XBT
2443479 -58.675 -62.725 4/2/1976 3.000 XBT
2443481 -58.823 -62.585 4/2/1976 4.167 XBT
2443485 -58.908 -62.692 4/2/1976 5.000 XBT
2443491 -58.937 -62.910 4/2/1976 6.000 XBT
732875 -58.937 -63.052 4/2/1976 6.700 OSD
3329790 -58.998 -62.873 4/2/1976 6.734 CTD
2443508 -58.865 -63.010 4/2/1976 10.000 XBT
2443506 -58.800 -63.033 4/2/1976 10.500 XBT
732883 -58.937 -63.015 4/2/1976 10.900 OSD
3329791 -58.757 -62.960 4/2/1976 10.951 CTD
2443529 -58.650 -63.070 4/2/1976 14.167 XBT
732889 -58.587 -63.112 4/2/1976 14.700 OSD
3329792 -58.597 -62.887 4/2/1976 14.701 CTD
2443536 -58.508 -63.142 4/2/1976 17.417 XBT
732899 -58.403 -63.250 4/2/1976 18.200 OSD
3329793 -58.422 -63.185 4/2/1976 18.267 CTD
732906 -58.247 -63.268 4/2/1976 22.000 OSD
3329794 -58.235 -63.297 4/2/1976 22.051 CTD
2443587 -58.175 -63.308 4/3/1976 1.250 XBT
732913 -58.083 -63.367 4/3/1976 2.100 OSD
3329795 -57.923 -63.362 4/3/1976 2.167 CTD
2443601 -58.000 -63.433 4/3/1976 5.583 XBT
732914 -57.942 -63.473 4/3/1976 6.100 OSD
3329796 -57.945 -63.422 4/3/1976 6.134 CTD
732921 -57.778 -63.550 4/3/1976 10.600 OSD
3329797 -57.777 -63.500 4/3/1976 10.667 CTD
2443666 -57.692 -63.550 4/3/1976 13.833 XBT
732928 -57.608 -63.567 4/3/1976 14.500 OSD
3329798 -57.612 -63.523 4/3/1976 14.501 CTD
2443683 -57.532 -63.603 4/3/1976 17.667 XBT
732931 -57.448 -63.683 4/3/1976 18.800 OSD
3329800 -57.450 -63.652 4/3/1976 18.834 CTD
2443713 -57.388 -63.683 4/3/1976 21.083 XBT
732938 -57.270 -63.620 4/3/1976 22.900 OSD
3329801 -57.265 -63.647 4/3/1976 22.967 CTD
2443736 -57.157 -63.705 4/4/1976 1.667 XBT
732944 -57.113 -63.687 4/4/1976 2.000 OSD
3329802 -56.853 -63.713 4/4/1976 2.001 CTD
2443752 -57.017 -63.767 4/4/1976 5.917 XBT
732946 -56.942 -63.765 4/4/1976 6.100 OSD
3329803 -56.962 -63.808 4/4/1976 6.184 CTD
2443777 -56.917 -63.867 4/4/1976 9.667 XBT
732951 -56.867 -64.008 4/4/1976 10.600 OSD
3329804 -56.888 -63.948 4/4/1976 10.667 CTD
2443810 -56.842 -64.143 4/4/1976 14.500 XBT
732960 -56.822 -64.425 4/4/1976 16.100 OSD
3329805 -56.827 -64.388 4/4/1976 16.117 CTD
732966 -56.745 -64.627 4/4/1976 20.700 OSD
3329806 -56.758 -64.533 4/4/1976 20.784 CTD
2443877 -56.692 -64.787 4/5/1976 0.500 XBT
732976 -56.592 -64.893 4/5/1976 1.100 OSD
3329807 -56.663 -64.897 4/5/1976 1.167 CTD
2443896 -56.625 -65.017 4/5/1976 4.617 XBT
732986 -56.613 -65.203 4/5/1976 5.300 OSD
3329808 -56.620 -65.185 4/5/1976 5.384 CTD
2443936 -56.575 -65.338 4/5/1976 8.583 XBT
732999 -56.540 -65.460 4/5/1976 10.500 OSD
3329809 -56.533 -65.480 4/5/1976 10.517 CTD
2443980 -56.483 -65.593 4/5/1976 13.500 XBT
733010 -56.452 -65.728 4/5/1976 14.600 OSD
3329810 -56.458 -65.698 4/5/1976 14.617 CTD
2443998 -56.425 -65.850 4/5/1976 17.167 XBT
733022 -56.398 -66.062 4/5/1976 18.200 OSD
3329811 -56.400 -65.972 4/5/1976 18.234 CTD
2444029 -56.383 -66.110 4/5/1976 21.083 XBT
733030 -56.325 -66.327 4/5/1976 22.300 OSD
3329812 -56.319 -66.342 4/5/1976 22.317 CTD
733041 -56.317 -66.322 4/6/1976 0.500 OSD
733051 -56.258 -66.610 4/6/1976 3.100 OSD
733053 -56.262 -66.622 4/6/1976 4.500 OSD
2444079 -56.235 -66.722 4/6/1976 6.500 XBT
733059 -56.227 -66.750 4/6/1976 6.700 OSD